HORIZON (RS59S)

Last updated on Sun Apr 12 2026 00:03:15 GMT+0000 (Coordinated Universal Time)

1 61757U 24199Y 26101.44938977 .00229843 00000+0 10555-2 0 9997 2 61757 97.2963 341.9770 0006791 134.0866 226.0963 15.83012756127585

Satellite not in orbit

HORIZON (RS59S)